HELLAS-SAT 3 (42814 NORAD) Tracking and Keplerian Element Data

This shows tracking and keplerian element data for the satellite.

Feedback or suggestion? Click here.




ElementValue
Catalog42814
NameHELLAS-SAT 3
Epoch Orbit1923
Epoch Day270.21368828
Epoch Year2022
RAAN17.845
Inclination0.0662
Eccentricity0.0001102
Argument of Perigee84.3394
Mean Anonmoly19.7422
Mean Motion1.00270737
Decay Rate1.56E-06
L11 42814U 17040A 22270.21368828 .00000156 00000+0 00000+0 0 9992
L22 42814 0.0662 17.8450 0001102 84.3394 19.7422 1.00270737 19232

Live tracking and technical data element details for HELLAS-SAT 3 (NORAD 42814). HELLAS-SAT 3 can be tracked NOW for your location showing map with azimuth and elevation plus other details from your city location.

Track the satellite on the map from your city or location and see movement details for azimuth, elevation, latitude, longitude, range, height, and movement on the map or in text.







IsCatalogInMostPopularTable: catalog: 42814, numindb: 605
Update: records affected: 1



GetName: 42814 HELLAS-SAT 3

Hit Count: updated at: Fri, 30 Sep 2022 04:10:59 GMT